Simultaneous Nadir Overpasses (SNOs) Predictions

Prediction of SNOs between METOP-B and NOAA-19 Satellite Orbit:

Table of predicted SNOs for the next 14.0 days since TLE Epoch: 3/6/2015
Index Date (METOP-B) Time (METOP-B) Lat,Lon (METOP-B) SZA (METOP-B ) Date (NOAA-19) Time (NOAA-19) Lat,Lon (NOAA-19) SZA (NOAA-19 ) Distance(km) Time Diff (sec)
1 03/09/2015 12:15:44 -74.96, 173.59 100.56 03/09/2015 12:14:33 -74.95, 171.94 100.52 47.66 71
2 03/09/2015 13:06:31 74.63, -20.01 79.12 03/09/2015 13:05:30 74.64, -19.93 79.14 2.56 61
3 03/09/2015 13:57:13 -74.61, 147.27 100.91 03/09/2015 13:56:29 -74.62, 147.36 100.90 2.98 44
4 03/09/2015 14:47:53 74.61, -45.39 79.08 03/09/2015 14:47:32 74.59, -45.32 79.06 2.76 21
5 03/09/2015 15:38:35 -74.59, 121.89 100.96 03/09/2015 15:38:31 -74.58, 121.97 100.97 2.93 4
6 03/09/2015 16:29:15 74.59, -70.78 79.03 03/09/2015 16:29:35 74.60, -70.85 79.04 2.13 20
7 03/09/2015 17:19:57 -74.58, 96.50 101.00 03/09/2015 17:20:34 -74.58, 96.45 101.00 1.78 37
8 03/09/2015 18:10:37 74.57, -96.17 78.99 03/09/2015 18:11:37 74.56, -96.24 78.97 2.98 60
9 03/09/2015 19:01:21 -74.46, 70.86 101.13 03/09/2015 19:02:35 -74.49, 71.19 101.12 10.37 74
10 03/19/2015 23:07:45 74.80,-169.85 75.16 03/19/2015 23:06:32 74.84,-170.61 75.23 22.65 73
11 03/19/2015 23:58:30 -74.66, -2.91 104.99 03/19/2015 23:57:31 -74.69, -2.92 104.96 3.38 59
12 03/20/2015 00:49:10 74.64, 164.37 74.98 03/20/2015 00:48:31 74.66, 164.41 75.01 2.77 39
13 03/20/2015 01:39:52 -74.64, -28.30 105.04 03/20/2015 01:39:33 -74.65, -28.31 105.03 0.83 19
14 03/20/2015 02:30:32 74.62, 138.98 74.94 03/20/2015 02:30:33 74.62, 139.01 74.93 0.96 1
15 03/20/2015 03:21:14 -74.62, -53.69 105.08 03/20/2015 03:21:35 -74.60, -53.71 105.10 2.00 21
16 03/20/2015 04:11:54 74.60, 113.59 74.89 03/20/2015 04:12:35 74.58, 113.62 74.86 2.72 41
17 03/20/2015 05:02:37 -74.56, -79.20 105.17 03/20/2015 05:03:37 -74.56, -79.10 105.17 3.16 60
18 03/20/2015 05:53:22 74.29, 87.44 74.57 03/20/2015 05:54:33 74.35, 88.75 74.59 39.75 71




NCC Satellite Simultaneous Nadir Overpasses (SNOs) Prediction Service
